Powrót do katalogu

STARLINK-37852

AktywnyŁącznośćSSO
NORAD 69662·PAYLOAD·🇺🇸 United States

Wystrzelony Jun 21, 2026 z Vandenberg Space Force Base

Loading…

Następne Przeloty (najbliższe 24 godziny)

TLE

ŚwieżeSource: CelesTrak SupGP

Epoka: Sep 15, 2026, 04:02 UTC

1 69662C 26143P   26258.16854167 -.00035629  00000+0 -11060-2 0  2580
2 69662  97.2840 301.4090 0000829  92.6220 275.5515 15.33456751    19

Śledź STARLINK-37852 w czasie rzeczywistym z AllMySat

Download on the App Store